Location: Grums
(59.3529°N, 13.1129°E)
Time: 01:44:57
(UTC+01:00)

SEEDS - Pass Details

Date: 07 December 2021
Orbit: 584 x 600 km, 97.6° (Epoch: 27 January)

Event Time Altitude Azimuth Distance (km) Brightness Sun altitude
Rises 05:41:38 0° 13° (NNE) 2,828 ? -21.5°
Reaches altitude 10° 05:43:51 10° 8° (N) 1,923 ? -21.2°
Enters shadow 05:46:21 32° 347° (NNW) 1,022 ? -20.9°
